Time,TemperatureF,DewpointF,PressureIn,WindDirection,WindDirectionDegrees,WindSpeedMPH,WindSpeedGustMPH,Humidity,HourlyPrecipIn,Conditions,Clouds,dailyrainin,SolarRadiationWatts/m^2,SoftwareType,DateUTC
2013-01-16 00:00:00,17.0,14.0,-100.00,SE,135,0.0,-999.0,86,-99.99,,,-99.99,0.000000,,2013-01-16 05:00:00,
2013-01-16 00:42:00,17.0,14.0,-100.00,SE,135,0.0,-999.0,86,-99.99,,,-99.99,0.000000,,2013-01-16 05:42:00,
2013-01-16 00:53:00,17.0,14.0,-100.00,SE,135,0.0,-999.0,86,-99.99,,,-99.99,0.000000,,2013-01-16 05:53:00,
2013-01-16 01:00:00,17.0,14.0,-100.00,SE,135,0.0,-999.0,86,-99.99,,,-99.99,0.000000,,2013-01-16 06:00:00,
2013-01-16 01:43:00,17.0,14.0,-100.00,SE,135,0.0,-999.0,86,-99.99,,,-99.99,0.000000,,2013-01-16 06:43:00,
2013-01-16 01:53:00,17.0,14.0,-100.00,SE,135,0.0,-999.0,86,-99.99,,,-99.99,0.000000,,2013-01-16 06:53:00,
2013-01-16 02:00:00,16.0,13.0,-100.00,SE,135,0.0,-999.0,87,-99.99,,,-99.99,0.000000,,2013-01-16 07:00:00,
2013-01-16 02:42:00,16.0,13.0,-100.00,SE,135,0.0,-999.0,87,-99.99,,,-99.99,0.000000,,2013-01-16 07:42:00,
2013-01-16 02:52:00,16.0,13.0,-100.00,SE,135,0.0,-999.0,87,-99.99,,,-99.99,0.000000,,2013-01-16 07:52:00,
2013-01-16 04:00:00,16.0,13.0,-100.00,SE,135,0.0,-999.0,87,-99.99,,,-99.99,0.000000,,2013-01-16 09:00:00,
2013-01-16 04:43:00,16.0,13.0,-100.00,SE,135,0.0,-999.0,87,-99.99,,,-99.99,0.000000,,2013-01-16 09:43:00,
2013-01-16 04:53:00,16.0,13.0,-100.00,SE,135,0.0,-999.0,87,-99.99,,,-99.99,0.000000,,2013-01-16 09:53:00,
2013-01-16 05:00:00,16.0,13.0,-100.00,SE,135,0.0,-999.0,87,-99.99,,,-99.99,0.000000,,2013-01-16 10:00:00,
2013-01-16 05:43:00,16.0,13.0,-100.00,SE,135,0.0,-999.0,87,-99.99,,,-99.99,0.000000,,2013-01-16 10:43:00,
2013-01-16 05:53:00,16.0,13.0,-100.00,SE,135,0.0,-999.0,87,-99.99,,,-99.99,0.000000,,2013-01-16 10:53:00,
2013-01-16 06:00:00,17.0,14.0,-100.00,SE,135,0.0,-999.0,86,-99.99,,,-99.99,0.000000,,2013-01-16 11:00:00,
2013-01-16 06:43:00,17.0,14.0,-100.00,SE,135,0.0,-999.0,86,-99.99,,,-99.99,0.000000,,2013-01-16 11:43:00,
2013-01-16 06:53:00,17.0,14.0,-100.00,SE,135,0.0,-999.0,86,-99.99,,,-99.99,0.000000,,2013-01-16 11:53:00,
2013-01-16 07:00:00,17.0,14.0,-100.00,SE,135,0.0,-999.0,85,-99.99,,,-99.99,0.000000,,2013-01-16 12:00:00,
2013-01-16 07:33:00,17.0,14.0,-100.00,SE,135,0.0,-999.0,85,-99.99,,,-99.99,0.000000,,2013-01-16 12:33:00,
2013-01-16 07:43:00,17.0,14.0,-100.00,SE,135,0.0,-999.0,85,-99.99,,,-99.99,0.000000,,2013-01-16 12:43:00,
2013-01-16 07:53:00,17.0,14.0,-100.00,SE,135,0.0,-999.0,85,-99.99,,,-99.99,0.000000,,2013-01-16 12:53:00,
2013-01-16 08:00:00,17.0,14.0,-100.00,SE,135,0.0,-999.0,87,-99.99,,,-99.99,0.000000,,2013-01-16 13:00:00,
2013-01-16 08:33:00,17.0,14.0,-100.00,SE,135,0.0,-999.0,87,-99.99,,,-99.99,0.000000,,2013-01-16 13:33:00,
2013-01-16 08:43:00,17.0,14.0,-100.00,SE,135,0.0,-999.0,87,-99.99,,,-99.99,0.000000,,2013-01-16 13:43:00,
2013-01-16 08:53:00,17.0,14.0,-100.00,SE,135,0.0,-999.0,87,-99.99,,,-99.99,0.000000,,2013-01-16 13:53:00,
2013-01-16 09:00:00,18.0,15.0,-100.00,SE,135,0.0,-999.0,86,-99.99,,,-99.99,17.400000,,2013-01-16 14:00:00,
2013-01-16 09:43:00,18.0,15.0,-100.00,SE,135,0.0,-999.0,86,-99.99,,,-99.99,17.400000,,2013-01-16 14:43:00,
2013-01-16 09:53:00,18.0,15.0,-100.00,SE,135,0.0,-999.0,86,-99.99,,,-99.99,17.400000,,2013-01-16 14:53:00,
2013-01-16 10:00:00,22.0,18.0,-100.00,SE,135,0.0,-999.0,83,-99.99,,,-99.99,105.559998,,2013-01-16 15:00:00,
2013-01-16 10:43:00,22.0,18.0,-100.00,SE,135,0.0,-999.0,83,-99.99,,,-99.99,105.559998,,2013-01-16 15:43:00,
2013-01-16 10:53:00,22.0,18.0,-100.00,SE,135,0.0,-999.0,83,-99.99,,,-99.99,105.559998,,2013-01-16 15:53:00,
2013-01-16 11:00:00,26.0,20.0,-100.00,SE,135,0.0,-999.0,77,-99.99,,,-99.99,286.519989,,2013-01-16 16:00:00,
2013-01-16 11:43:00,26.0,20.0,-100.00,SE,135,0.0,-999.0,77,-99.99,,,-99.99,286.519989,,2013-01-16 16:43:00,
2013-01-16 11:53:00,26.0,20.0,-100.00,SE,135,0.0,-999.0,77,-99.99,,,-99.99,286.519989,,2013-01-16 16:53:00,
2013-01-16 12:00:00,28.0,20.0,-100.00,SSW,202,8.0,-999.0,73,-99.99,,,-99.99,382.799988,,2013-01-16 17:00:00,
2013-01-16 12:44:00,28.0,20.0,-100.00,SSW,202,8.0,-999.0,73,-99.99,,,-99.99,382.799988,,2013-01-16 17:44:00,
2013-01-16 12:53:00,28.0,20.0,-100.00,SSW,202,8.0,-999.0,73,-99.99,,,-99.99,382.799988,,2013-01-16 17:53:00,
2013-01-16 13:00:00,30.0,20.0,-100.00,SW,225,11.0,-999.0,66,-99.99,,,-99.99,430.359985,,2013-01-16 18:00:00,
2013-01-16 13:43:00,30.0,20.0,-100.00,SW,225,11.0,-999.0,66,-99.99,,,-99.99,430.359985,,2013-01-16 18:43:00,
2013-01-16 13:53:00,30.0,20.0,-100.00,SW,225,11.0,-999.0,66,-99.99,,,-99.99,430.359985,,2013-01-16 18:53:00,
2013-01-16 14:00:00,32.0,20.0,-100.00,SW,225,12.0,-999.0,60,-99.99,,,-99.99,392.079987,,2013-01-16 19:00:00,
2013-01-16 14:43:00,32.0,20.0,-100.00,SW,225,12.0,-999.0,60,-99.99,,,-99.99,392.079987,,2013-01-16 19:43:00,
2013-01-16 14:53:00,32.0,20.0,-100.00,SW,225,12.0,-999.0,60,-99.99,,,-99.99,392.079987,,2013-01-16 19:53:00,
2013-01-16 15:00:00,32.0,18.0,-100.00,SW,225,12.0,-999.0,57,-99.99,,,-99.99,179.800003,,2013-01-16 20:00:00,
2013-01-16 15:43:00,32.0,18.0,-100.00,SW,225,12.0,-999.0,57,-99.99,,,-99.99,179.800003,,2013-01-16 20:43:00,
2013-01-16 15:53:00,32.0,18.0,-100.00,SW,225,12.0,-999.0,57,-99.99,,,-99.99,179.800003,,2013-01-16 20:53:00,
2013-01-16 16:00:00,31.0,18.0,-100.00,SSW,202,12.0,-999.0,57,-99.99,,,-99.99,53.360001,,2013-01-16 21:00:00,
2013-01-16 16:43:00,31.0,18.0,-100.00,SSW,202,12.0,-999.0,57,-99.99,,,-99.99,53.360001,,2013-01-16 21:43:00,
2013-01-16 16:53:00,31.0,18.0,-100.00,SSW,202,12.0,-999.0,57,-99.99,,,-99.99,53.360001,,2013-01-16 21:53:00,
2013-01-16 17:00:00,31.0,19.0,-100.00,SW,225,11.0,-999.0,60,-99.99,,,-99.99,29.000000,,2013-01-16 22:00:00,
2013-01-16 17:43:00,31.0,19.0,-100.00,SW,225,11.0,-999.0,60,-99.99,,,-99.99,29.000000,,2013-01-16 22:43:00,
2013-01-16 17:53:00,31.0,19.0,-100.00,SW,225,11.0,-999.0,60,-99.99,,,-99.99,29.000000,,2013-01-16 22:53:00,
2013-01-16 18:00:00,30.0,22.0,-100.00,SW,225,11.0,-999.0,70,-99.99,,,-99.99,2.320000,,2013-01-16 23:00:00,
2013-01-16 18:43:00,30.0,22.0,-100.00,SW,225,11.0,-999.0,70,-99.99,,,-99.99,2.320000,,2013-01-16 23:43:00,
2013-01-16 18:53:00,30.0,22.0,-100.00,SW,225,11.0,-999.0,70,-99.99,,,-99.99,2.320000,,2013-01-16 23:53:00,
2013-01-16 19:00:00,30.0,26.0,-100.00,SW,225,9.0,-999.0,86,-99.99,,,-99.99,0.000000,,2013-01-17 00:00:00,
2013-01-16 19:42:00,30.0,26.0,-100.00,SW,225,9.0,-999.0,86,-99.99,,,-99.99,0.000000,,2013-01-17 00:42:00,
2013-01-16 19:53:00,30.0,26.0,-100.00,SW,225,9.0,-999.0,86,-99.99,,,-99.99,0.000000,,2013-01-17 00:53:00,
2013-01-16 20:00:00,30.0,28.0,-100.00,SW,225,6.0,-999.0,91,-99.99,,,-99.99,0.000000,,2013-01-17 01:00:00,
2013-01-16 20:33:00,30.0,28.0,-100.00,SW,225,6.0,-999.0,91,-99.99,,,-99.99,0.000000,,2013-01-17 01:33:00,
2013-01-16 20:43:00,30.0,28.0,-100.00,SW,225,6.0,-999.0,91,-99.99,,,-99.99,0.000000,,2013-01-17 01:43:00,
2013-01-16 20:53:00,30.0,28.0,-100.00,SW,225,6.0,-999.0,91,-99.99,,,-99.99,0.000000,,2013-01-17 01:53:00,
2013-01-16 21:00:00,31.0,26.0,-100.00,West,270,4.0,-999.0,80,-99.99,,,-99.99,0.000000,,2013-01-17 02:00:00,
2013-01-16 22:00:00,32.0,26.0,-100.00,WSW,247,5.0,-999.0,79,-99.99,,,-99.99,0.000000,,2013-01-17 03:00:00,
2013-01-16 22:43:00,32.0,26.0,-100.00,WSW,247,5.0,-999.0,79,-99.99,,,-99.99,0.000000,,2013-01-17 03:43:00,
2013-01-16 22:53:00,32.0,26.0,-100.00,WSW,247,5.0,-999.0,79,-99.99,,,-99.99,0.000000,,2013-01-17 03:53:00,
2013-01-16 23:00:00,31.0,26.0,-100.00,West,270,4.0,-999.0,81,-99.99,,,-99.99,0.000000,,2013-01-17 04:00:00,
2013-01-16 23:43:00,31.0,26.0,-100.00,West,270,4.0,-999.0,81,-99.99,,,-99.99,0.000000,,2013-01-17 04:43:00,
2013-01-16 23:53:00,31.0,26.0,-100.00,West,270,4.0,-999.0,81,-99.99,,,-99.99,0.000000,,2013-01-17 04:53:00,